Погода в Мойковаце

Черногория     42°57′49″N   19°34′40″E
темп.,
°C
ветер,
м/с
пор.,
м/с
влажн.,
%
обл.,
%
осадки,
мм/ч
давл.,
гПа
погр.,
м
18 мая, вт
вт1823:00+6зюз33962 0.3 101152
02:00+3зюз32910 0.3 101233
05:00+2зсз22892 0.0 101416
08:00+8с12726 0.1 1014514
11:00+13сз253626 0.2 10132290
14:00+15з373293 0.2 10123109
17:00+13зюз56416 0.0 10131737
20:00+6юз22800 0.0 101534
19 мая, ср
ср1923:00+4юз229398 0.0 101732
02:00+4юз2285100 0.0 101630
05:00+3юз228174 0.0 101637
08:00+10ююз2348100 0.0 1013442
11:00+14ююз484583 0.0 10111658
14:00+14ююз474428 0.0 10101759
17:00+12ююз365511 0.0 10091314
20:00+7ююз238999 0.1 1010159
20 мая, чт
чт2023:00+6юз239747 0.1 1012191
02:00+6ююз1295100 0.6 1010118
05:00+4з119640 2.4 101120
08:00+6ссз349257 3.2 1012472
11:00+7ссз357785 0.8 10131136
14:00+9ссз575484 1.1 10121603
17:00+8ссз575979 0.1 10131502
20:00+3ссз2790100 0.3 1017793
21 мая, пт
пт2123:00+3ссз2598100 0.3 1018441
02:00+2ссз2799100 0.5 1018518
05:00+2с21199100 0.6 1019741
08:00+3с31098100 1.0 1020983
11:00+6с368998 0.4 1020923
14:00+8ссз236980 0.8 10191156
17:00+11ссз135031 0.0 10181423
20:00+5юз11775 0.0 101910
22 мая, сб
сб2223:00+4юз1182100 0.0 102010
02:00+3зюз22825 0.0 101915
05:00+3зюз22855 0.0 101923
08:00+10юз125937 0.0 1016388
11:00+17ююз2335100 0.0 10151267
14:00+18юз243572 0.0 10141729
17:00+16юз344811 0.0 10141125
20:00+9юз339327 0.0 101661